This demonstration page uses our WeatherBlox Daily Observations layout. Learn more.

Left ArrowRight Arrow

Hourly Observations for August 18, 2015

Temp ( °F °C ) Dew Point ( °F °C ) Humidity (%) Winds ( mph kmh ) Pressure ( in mb ) Visibility ( mi km ) Precip ( " mm )
12:22 am 00:22 Cloudy with Light Thunderstorms 70 21 66 19 88 88 NE 3 6 29.88 1012 5 8.0467 0 0
12:31 am 00:31 Cloudy with Heavy Thunderstorms 68 20 67 19.4 96 96 ENE 7 11 29.88 1012 2.5 4.02335 0.07 1.778
12:37 am 00:37 Cloudy with Thunderstorms 69 20.6 67 19.4 93 93 NE 8 13 29.88 1012 3 4.82802 0.09 2.286
12:47 am 00:47 Cloudy with Light Thunderstorms 70 21 66 19 88 88 NNE 6 9 29.88 1012 5 8.0467 0 0
12:49 am 00:49 Cloudy with Light Thunderstorms 70 21 66 19 88 88 NNE 6 9 29.88 1012 5 8.0467 0.09 2.286
12:54 am 00:54 Cloudy with Light Thunderstorms 68 20 67 19.4 96 96 N 8 13 29.87 1012 5 8.0467 0.09 2.286
1:11 am 01:11 Cloudy with Heavy Thunderstorms 68 20 67 19.4 96 96 N 9 15 29.85 1011 2.5 4.02335 0.07 1.778
1:17 am 01:17 Cloudy with Nearby Thunderstorms 68 20 67 19.4 96 96 N 7 11 29.85 1011 1.75 2.816345 0.16 4.064
1:25 am 01:25 Cloudy with Heavy Thunderstorms 68 20 66 19 94 94 N 7 11 29.85 1011 2 3.21868 0 0
1:35 am 01:35 Cloudy with Nearby Thunderstorms 68 20 67 19.4 96 96 NNE 7 11 29.85 1011 5 8.0467 0.25 6.35
1:50 am 01:50 Cloudy with Light Thunderstorms 68 20 66 19 94 94 NNE 9 15 29.83 1010 5 8.0467 0 0
1:54 am 01:54 Cloudy with Light Thunderstorms 68 20 67 19.4 96 96 NNE 9 15 29.83 1010 6 9.65604 0.26 6.604
2:33 am 02:33 Mostly Cloudy with Light Thunderstorms 68 20 67 19.4 96 96 ENE 14 22 29.8 1009 8 12.87472 0.02 0.508
2:45 am 02:45 Mostly Cloudy 69 20.6 67 19.4 93 93 E 10 17 29.8 1009 8 12.87472 0.02 0.508
2:54 am 02:54 Partly Cloudy 69 20.6 68 20 96 96 E 12 19 29.8 1009 7 11.26538 0.02 0.508
3:23 am 03:23 Mostly Clear with Mist and Fog 69 20.6 68 20 96 96 ENE 7 11 29.8 1009 6 9.65604 0 0
3:36 am 03:36 Mostly Cloudy with Mist and Fog 70 21 68 20 94 94 E 7 11 29.8 1009 5 8.0467 0 0
3:54 am 03:54 Cloudy with Mist and Fog 69 20.6 68 20 96 96 ESE 8 13 29.77 1008 4 6.43736 0 0
4:29 am 04:29 Mostly Cloudy with Mist and Fog 70 21 68 20 94 94 ESE 7 11 29.74 1007 4 6.43736 0 0
4:41 am 04:41 Mostly Cloudy with Mist and Fog 69 20.6 68 20 96 96 ESE 7 11 29.74 1007 5 8.0467 0 0
4:54 am 04:54 Mostly Cloudy with Mist and Fog 69 20.6 68 20 96 96 E 7 11 29.74 1007 5 8.0467 0 0
5:51 am 05:51 Cloudy with Light Rain 70 21 68 20 94 94 SE 7 11 29.74 1007 5 8.0467 0 0.0254
5:54 am 05:54 Cloudy with Light Rain 69 20.6 68 20 96 96 SE 7 11 29.73 1007 5 8.0467 0 0.0254
6:31 am 06:31 Mostly Cloudy with Mist and Fog 69 20.6 68 20 96 96 SSE 6 9 29.68 1005 4 6.43736 0 0.0254
6:44 am 06:44 Mostly Cloudy with Mist and Fog 70 21 68 20 94 94 S 5 7 29.68 1005 4 6.43736 0 0
6:54 am 06:54 Mostly Cloudy with Mist and Fog 69 20.6 67 19.4 93 93 S 6 9 29.71 1006 3 4.82802 0 0.0254
7:03 am 07:03 Partly Cloudy with Mist and Fog 70 21 66 19 88 88 S 8 13 29.68 1005 3 4.82802 0 0
7:54 am 07:54 Cloudy with Mist and Fog 70 21.1 68 20 93 93 S 10 17 29.69 1005 3 4.82802 0 0
8:37 am 08:37 Cloudy 66 19 63 17 88 88 NW 23 37 29.74 1007 10 16.0934 0 0
8:54 am 08:54 Cloudy with Nearby Thunderstorms 64 17.8 61 16.1 90 90 N 15 24 29.75 1007 3 4.82802 0.04 1.016
9:01 am 09:01 Cloudy with Light Thunderstorms 63 17.2 61 16.1 93 93 N 12 19 29.74 1007 5 8.0467 0.02 0.508
9:10 am 09:10 Cloudy with Nearby Thunderstorms 63 17.2 61 16.1 93 93 N 9 15 29.74 1007 6 9.65604 0.03 0.762
9:19 am 09:19 Cloudy with Nearby Thunderstorms 63 17.2 61 16.1 93 93 N 8 13 29.74 1007 9 14.48406 0.03 0.762
9:50 am 09:50 Cloudy 63 17 61 16 94 94 N 7 11 29.74 1007 10 16.0934 0 0
9:51 am 09:51 Cloudy 63 17 61 16 94 94 N 7 11 29.74 1007 10 16.0934 0 0
10:08 am 10:08 Cloudy 64 17.8 61 16.1 90 90 NNE 7 11 29.74 1007 10 16.0934 0 0
10:54 am 10:54 Cloudy 64 17.8 61 16.1 90 90 ENE 8 13 29.75 1007 10 16.0934 0 0
11:54 am 11:54 Cloudy 65 18.3 62 16.7 90 90 NNE 6 9 29.74 1007 10 16.0934 0.01 0.254
12:16 pm 12:16 Cloudy 65 18.3 61 16.1 87 87 N 6 9 29.74 1007 10 16.0934 0 0
12:32 pm 12:32 Cloudy with Light Rain 65 18.3 62 16.7 90 90 N 6 9 29.77 1008 5 8.0467 0 0.0254
12:54 pm 12:54 Cloudy with Light Rain 66 18.9 63 17.2 90 90 N 5 7 29.75 1008 10 16.0934 0 0.0254
1:37 pm 13:37 Cloudy with Light Rain 66 18.9 63 17.2 90 90 W 3 6 29.74 1007 7 11.26538 0 0.0254
1:54 pm 13:54 Cloudy 66 18.9 62 16.7 87 87 SSW 3 6 29.73 1007 10 16.0934 0 0.0254
2:54 pm 14:54 Mostly Cloudy 70 21.1 63 17.2 79 79 SW 7 11 29.73 1007 10 16.0934 0 0.0254
3:54 pm 15:54 Partly Cloudy 73 22.8 61 16.1 66 66 W 9 15 29.71 1006 10 16.0934 0 0
4:54 pm 16:54 Cloudy 74 23.3 57 13.9 56 56 NW 20 31 29.7 1006 10 16.0934 0 0
5:54 pm 17:54 Cloudy 72 22.2 56 13.3 57 57 NW 15 24 29.71 1006 10 16.0934 0 0
6:54 pm 18:54 Sunny 70 21.1 54 12.2 57 57 NW 18 30 29.73 1007 10 16.0934 0 0
7:54 pm 19:54 Mostly Sunny 66 18.9 54 12.2 65 65 NW 16 26 29.75 1008 10 16.0934 0 0
8:54 pm 20:54 Mostly Clear 63 17.2 52 11.1 68 68 NW 15 24 29.78 1009 10 16.0934 0 0
9:54 pm 21:54 Clear 61 16.1 51 10.6 70 70 NW 13 20 29.82 1010 10 16.0934 0 0
10:54 pm 22:54 Mostly Clear 59 15 52 11.1 78 78 WNW 9 15 29.83 1010 10 16.0934 0 0
11:54 pm 23:54 Clear 58 14.4 50 10 75 75 WNW 13 20 29.85 1011 10 16.0934 0 0

Powered by AerisWeather